Weather reports worldwide

Advertisment
Berlin-Dahlem (FU), Germany (10381): temperature & dewpoint: 29.05.2020 19:00:00 - 04.06.2020 19:00:00 (CEST)Berlin-Dahlem (FU), Germany (10381): temperature 5cm & temperature -5cm: 29.05.2020 19:00:00 - 04.06.2020 19:00:00 (CEST)Berlin-Dahlem (FU), Germany (10381): temperature -20cm & temperature -100cm: 29.05.2020 19:00:00 - 04.06.2020 19:00:00 (CEST)Berlin-Dahlem (FU), Germany (10381): wind speed & gusts: 29.05.2020 19:00:00 - 04.06.2020 19:00:00 (CEST)Berlin-Dahlem (FU), Germany (10381): wind direction: 29.05.2020 19:00:00 - 04.06.2020 19:00:00 (CEST)Berlin-Dahlem (FU), Germany (10381): reduced air pressure: 29.05.2020 19:00:00 - 04.06.2020 19:00:00 (CEST)Berlin-Dahlem (FU), Germany (10381): visibility: 29.05.2020 19:00:00 - 04.06.2020 19:00:00 (CEST)Berlin-Dahlem (FU), Germany (10381): sunshine duration: 29.05.2020 19:00:00 - 04.06.2020 19:00:00 (CEST)Berlin-Dahlem (FU), Germany (10381): precipitation: 29.05.2020 19:00:00 - 04.06.2020 19:00:00 (CEST)
Date & Time tt [°C] td [°C] tt 5cm [°C] tt -5cm [°C] tt -20cm [°C] tt -100cm [°C] ff [km/h] ff [kn] fx [km/h] fx [kn] dd ppp [hPa] vv [km] sd [min] rr [mm]
04.06.2020 19:00:00 18,3 13,3 16,6 22,2 21,3 14,2 13 7 32 18 S 992,7 25 0 0,0
04.06.2020 18:00:00 19,3 12,9 20,2 23,4 21,5 14,0 16 9 25 14 S 992,8 45 0 0,0
04.06.2020 17:00:00 18,4 13,0 17,7 24,1 21,7 14,0 16 9 61 33 SSW 993,6 30 0 0,0
04.06.2020 16:00:00 22,4 7,9 22,0 25,7 21,7 14,0 24 13 47 25 SSW 993,2 30 0 0,0
04.06.2020 15:00:00 24,3 8,0 27,4 28,2 21,0 14,0 21 12 40 21 S 993,4 45 18 0,0
04.06.2020 14:00:00 24,9 7,6 30,5 28,7 20,2 14,0 19 11 43 23 SE 994,0 45 54 0,0
04.06.2020 13:00:00 23,7 7,8 28,0 26,6 19,7 14,0 19 10 36 19 SE 994,8 45 60 0,0
04.06.2020 12:00:00 23,2 8,6 27,0 25,9 18,7 14,0 17 9 36 19 SE 995,4 45 60 0,0
04.06.2020 11:00:00 21,9 9,9 26,2 23,3 18,2 14,0 20 11 40 21 SE 995,9 45 48 0,0
04.06.2020 10:00:00 18,4 8,2 20,2 20,6 17,9 14,0 18 10 25 14 SSE 996,5 45 36 0,0
04.06.2020 09:00:00 18,0 7,5 21,3 18,5 17,7 14,0 11 6 18 10 SE 997,2 45 44 0,0
04.06.2020 08:00:00 16,0 9,1 16,7 16,8 17,7 14,0 11 6 22 12 ESE 997,6 45 42 0,0
04.06.2020 07:00:00 14,1 11,0 13,9 16,4 18,0 14,0 11 6 18 10 SSE 998,2 45 0 0,0
04.06.2020 06:00:00 12,7 10,7 11,4 15,8 18,3 14,0 10 5 18 10 SSE 998,6 50 3 0,0
04.06.2020 05:00:00 12,1 10,0 8,2 15,7 18,7 14,0 8 4 18 10 SSE 999,0 50 0 0,0
04.06.2020 04:00:00 13,3 8,7 9,2 16,3 19,2 14,0 13 7 25 14 S 999,4 50 0 0,0
04.06.2020 03:00:00 13,2 7,1 8,7 16,6 19,7 13,9 13 7 22 12 SSE 999,9 50 0 0,0
04.06.2020 02:00:00 13,5 6,2 7,5 17,2 20,2 13,9 10 6 18 10 ESE 1000,2 50 0 0,0
04.06.2020 01:00:00 14,1 5,3 7,7 18,2 20,7 13,9 13 7 18 10 E 1000,7 50 0 0,0
04.06.2020 00:00:00 15,6 6,7 10,5 19,4 21,4 13,9 11 6 22 12 ESE 1001,6 45 0 0,0
03.06.2020 23:00:00 16,1 9,2 11,0 20,5 21,9 13,9 8 4 18 10 ESE 1002,2 50 0 0,0
03.06.2020 22:00:00 18,7 7,3 15,9 21,8 22,5 13,9 6 4 18 10 WNW 1002,7 50 0 0,0
03.06.2020 21:00:00 20,4 4,1 15,0 23,7 23,0 13,9 12 6 22 12 ESE 1002,5 50 0 0,0
03.06.2020 20:00:00 21,9 5,0 19,7 25,5 23,2 13,7 13 7 22 12 SE 1002,5 50 0 0,0
03.06.2020 19:00:00 22,9 5,4 23,4 27,3 23,5 13,7 10 6 25 14 ESE 1002,6 50 24 0,0
03.06.2020 18:00:00 24,4 5,8 27,5 30,1 23,2 13,7 10 6 29 16 SE 1002,5 50 60 0,0
03.06.2020 17:00:00 24,3 5,2 28,7 31,4 22,7 13,7 11 6 29 16 E 1003,1 50 60 0,0
03.06.2020 16:00:00 24,9 6,2 30,5 31,5 22,0 13,8 12 7 25 14 ESE 1003,7 50 60 0,0
03.06.2020 15:00:00 24,3 6,2 30,0 31,2 21,0 13,7 11 6 25 14 ENE 1004,6 50 60 0,0
03.06.2020 14:00:00 23,7 6,1 29,7 30,1 20,0 13,7 7 4 25 14 ESE 1005,4 50 60 0,0
03.06.2020 13:00:00 23,3 6,2 28,7 28,6 19,0 13,7 10 5 25 14 SE 1006,1 50 60 0,0
03.06.2020 12:00:00 22,7 6,5 27,7 26,3 18,0 13,7 7 4 22 12 E 1006,7 55 60 0,0
03.06.2020 11:00:00 21,2 5,6 25,7 23,5 17,2 13,7 5 3 18 10 ENE 1007,3 50 60 0,0
03.06.2020 10:00:00 19,2 6,1 23,0 19,8 16,7 13,7 5 3 14 8 ESE 1007,8 50 60 0,0
03.06.2020 09:00:00 17,0 5,7 18,2 15,9 16,7 13,7 3 2 11 6 ESE 1008,2 50 60 0,0
03.06.2020 08:00:00 14,7 7,8 11,2 14,5 17,0 13,7 5 3 11 6 ESE 1008,7 45 60 0,0
03.06.2020 07:00:00 12,9 9,1 8,7 14,4 17,4 13,7 5 3 14 8 ESE 1008,7 50 60 0,0
03.06.2020 06:00:00 11,0 9,6 7,0 14,5 17,7 13,7 8 4 14 8 ESE 1009,1 50 36 0,0
03.06.2020 05:00:00 11,6 10,0 6,7 15,0 18,2 13,7 6 3 14 8 E 1009,1 50 0 0,0
03.06.2020 04:00:00 12,5 10,2 6,7 15,6 18,7 13,7 10 6 18 10 E 1009,3 50 0 0,0
03.06.2020 03:00:00 13,4 10,2 7,7 16,3 19,2 13,7 10 5 18 10 ENE 1009,8 50 0 0,0
03.06.2020 02:00:00 13,5 10,1 8,0 17,1 19,7 13,7 9 5 14 8 NE 1010,3 50 0 0,0
03.06.2020 01:00:00 14,7 9,4 8,7 18,0 20,2 13,7 8 4 14 8 ENE 1011,1 50 0 0,0
03.06.2020 00:00:00 17,3 6,9 10,0 19,1 20,7 13,7 8 4 25 14 NNE 1011,4 50 0 0,0
02.06.2020 23:00:00 20,5 6,5 16,2 20,3 21,2 13,7 14 7 25 14 NNE 1011,7 50 0 0,0
02.06.2020 22:00:00 21,4 6,2 16,2 21,6 21,7 13,7 14 8 32 18 N 1011,8 50 0 0,0
02.06.2020 21:00:00 23,2 6,6 21,2 23,2 22,2 13,7 18 10 36 19 NNE 1011,6 50 60 0,0
02.06.2020 20:00:00 24,7 6,5 23,2 25,0 22,5 13,7 23 12 40 21 N 1011,6 50 60 0,0
02.06.2020 19:00:00 25,7 7,4 26,2 27,8 22,4 13,7 23 12 43 23 N 1012,0 50 60 0,0
02.06.2020 18:00:00 26,3 7,9 28,7 29,1 22,0 13,7 24 13 43 23 N 1012,4 50 54 0,0
02.06.2020 17:00:00 26,1 7,7 30,0 29,3 21,7 13,7 18 10 40 21 N 1013,1 50 48 0,0
02.06.2020 16:00:00 26,4 8,5 30,7 29,4 21,0 13,5 16 9 43 23 N 1014,0 50 48 0,0
02.06.2020 15:00:00 25,7 8,8 28,9 29,3 20,2 13,5 21 11 40 21 NNW 1015,1 50 42 0,0
02.06.2020 14:00:00 24,9 8,1 28,7 28,7 19,4 13,5 14 8 40 21 N 1016,1 50 54 0,0
02.06.2020 13:00:00 24,4 8,0 28,7 27,9 18,4 13,5 19 10 36 19 NNW 1017,1 50 60 0,0
02.06.2020 12:00:00 23,3 7,5 27,2 25,9 17,4 13,5 12 7 25 14 N 1017,9 50 60 0,0
02.06.2020 11:00:00 21,5 7,1 25,7 23,2 16,5 13,5 8 5 25 14 N 1018,6 50 60 0,0
02.06.2020 10:00:00 20,0 6,4 23,0 19,7 16,0 13,5 6 3 18 10 NNE 1019,6 50 60 0,0
02.06.2020 09:00:00 18,0 6,0 18,0 15,2 16,0 13,5 7 4 18 10 N 1020,3 50 60 0,0
02.06.2020 08:00:00 15,2 7,1 13,9 13,9 16,2 13,5 11 6 22 12 N 1020,6 50 60 0,0
02.06.2020 07:00:00 13,4 6,6 11,0 13,7 16,7 13,5 8 4 18 10 N 1020,9 50 60 0,0
02.06.2020 06:00:00 10,9 6,0 6,2 13,7 17,0 13,5 10 5 22 12 NE 1021,0 50 42 0,0
02.06.2020 05:00:00 10,6 5,3 5,2 14,1 17,4 13,4 11 6 22 12 NNE 1020,9 50 0 0,0
02.06.2020 04:00:00 12,9 5,4 7,7 14,7 17,7 13,4 12 7 22 12 NNE 1021,2 50 0 0,0
02.06.2020 03:00:00 13,0 5,0 7,2 15,3 18,2 13,4 11 6 22 12 NNE 1021,7 50 0 0,0
02.06.2020 02:00:00 13,6 4,8 8,7 16,2 18,7 13,4 12 7 18 10 ENE 1021,9 50 0 0,0
02.06.2020 01:00:00 14,8 4,9 8,7 17,0 19,2 13,4 13 7 22 12 NE 1022,2 50 0 0,0
02.06.2020 00:00:00 15,8 4,6 11,7 17,9 19,9 13,4 11 6 25 14 NE 1022,4 50 0 0,0
01.06.2020 23:00:00 16,9 4,7 13,7 19,0 20,4 13,4 11 6 25 14 NE 1022,3 50 0 0,0
01.06.2020 22:00:00 17,9 4,9 14,7 20,3 20,9 13,4 15 8 40 21 ENE 1022,3 50 6 0,0
01.06.2020 21:00:00 19,6 5,3 17,7 21,9 21,4 13,4 18 10 36 19 ENE 1021,9 50 60 0,0
01.06.2020 20:00:00 20,9 6,5 19,5 23,8 21,7 13,4 21 11 40 21 NE 1021,7 50 60 0,0
01.06.2020 19:00:00 22,2 6,9 23,0 26,6 21,7 13,4 21 11 40 21 NE 1021,6 50 54 0,0
01.06.2020 18:00:00 23,4 6,3 25,7 28,2 21,4 13,2 16 9 36 19 E 1021,6 50 60 0,0
01.06.2020 17:00:00 23,8 5,7 28,2 29,3 20,9 13,2 17 9 36 19 E 1021,9 50 60 0,0
01.06.2020 16:00:00 23,5 4,5 28,0 29,4 20,2 13,2 16 9 32 18 E 1022,3 50 60 0,0
01.06.2020 15:00:00 23,4 4,4 27,7 29,1 19,2 13,2 15 8 29 16 ENE 1022,7 50 60 0,0
01.06.2020 14:00:00 22,8 5,3 27,2 28,0 18,2 13,2 16 8 32 18 NE 1023,2 50 60 0,0
01.06.2020 13:00:00 21,4 5,0 25,7 26,4 17,2 13,2 16 9 32 18 NNE 1023,7 50 60 0,0
01.06.2020 12:00:00 20,3 5,6 25,4 24,3 16,2 13,2 13 7 29 16 ENE 1023,9 50 60 0,0
01.06.2020 11:00:00 18,6 6,9 23,0 21,7 15,4 13,2 11 6 22 12 ENE 1024,4 50 60 0,0
01.06.2020 10:00:00 16,4 7,4 19,9 18,2 15,0 13,2 9 5 22 12 NNE 1024,5 50 60 0,0
01.06.2020 09:00:00 14,1 7,0 15,5 13,7 15,0 13,2 9 5 18 10 NNE 1024,5 50 60 0,0
01.06.2020 08:00:00 12,0 8,6 10,7 12,6 15,2 13,2 11 6 18 10 ENE 1024,4 50 60 0,0
01.06.2020 07:00:00 10,6 8,7 9,5 12,6 15,5 13,3 11 6 22 12 NNE 1024,0 50 60 0,0
01.06.2020 06:00:00 9,2 8,1 6,5 12,6 15,9 13,2 10 6 18 10 NE 1023,9 50 42 0,0
01.06.2020 05:00:00 9,6 8,2 6,7 13,0 16,2 13,2 12 7 22 12 NNE 1023,6 50 0 0,0
01.06.2020 04:00:00 9,9 8,0 5,2 13,6 16,7 13,2 11 6 22 12 NE 1023,7 50 0 0,0
01.06.2020 03:00:00 10,6 7,6 8,2 14,3 17,2 13,2 11 6 22 12 NNE 1023,8 50 0 0,0
01.06.2020 02:00:00 11,4 7,6 9,9 15,0 17,7 13,2 15 8 25 14 NE 1023,5 50 0 0,0
01.06.2020 01:00:00 12,2 7,0 10,7 15,7 18,0 13,2 14 8 29 16 NE 1023,5 50 0 0,0
01.06.2020 00:00:00 13,2 6,4 11,7 16,6 18,7 13,2 15 8 32 18 NNE 1023,2 50 0 0,0
31.05.2020 23:00:00 14,2 6,2 11,9 17,6 19,0 13,2 17 9 32 18 NNE 1022,7 50 0 0,0
31.05.2020 22:00:00 15,7 6,0 14,2 18,8 19,7 13,2 21 11 40 21 NNE 1022,5 50 18 0,0
31.05.2020 21:00:00 17,4 6,4 15,9 20,3 20,0 13,2 20 11 36 19 NNE 1021,7 50 60 0,0
31.05.2020 20:00:00 19,0 7,5 17,9 22,1 20,2 13,2 16 9 36 19 NE 1020,9 50 60 0,0
31.05.2020 19:00:00 20,2 7,7 21,0 25,0 20,2 13,2 18 10 43 23 NE 1020,5 50 60 0,0
31.05.2020 18:00:00 21,5 7,0 23,7 26,4 19,9 13,2 24 13 43 23 NNE 1020,2 50 60 0,0
31.05.2020 17:00:00 22,4 7,9 26,4 27,4 19,4 13,2 18 10 43 23 NE 1020,0 50 60 0,0
31.05.2020 16:00:00 22,1 8,7 25,7 27,4 18,7 13,2 21 11 43 23 N 1020,1 50 60 0,0
31.05.2020 15:00:00 22,1 8,7 27,0 26,7 17,7 13,2 19 11 40 21 NNE 1020,3 50 60 0,0
31.05.2020 14:00:00 21,2 8,6 25,7 25,1 16,7 13,2 20 11 40 21 NE 1020,5 50 48 0,0
31.05.2020 13:00:00 20,2 9,8 25,2 23,4 15,7 13,2 17 9 40 21 N 1020,8 50 60 0,0
31.05.2020 12:00:00 16,7 9,7 20,9 19,4 15,2 13,2 22 12 32 18 N 1021,5 50 24 0,0
31.05.2020 11:00:00 15,3 9,8 18,0 17,2 14,7 13,2 16 9 29 16 N 1021,8 50 6 0,0
31.05.2020 10:00:00 13,6 9,4 15,7 15,5 14,7 13,2 16 9 32 18 N 1021,8 50 6 0,0
31.05.2020 09:00:00 12,4 9,0 13,4 14,5 14,7 13,2 15 8 32 18 N 1021,9 50 0 0,0
31.05.2020 08:00:00 11,8 8,6 12,7 13,8 14,7 13,2 19 10 36 19 N 1021,8 50 6 0,0
31.05.2020 07:00:00 10,7 8,2 10,9 13,0 14,7 13,2 18 10 32 18 N 1021,7 50 0 0,0
31.05.2020 06:00:00 10,0 8,1 9,7 12,5 15,0 13,2 16 8 32 18 N 1021,6 50 0 0,0
31.05.2020 05:00:00 9,6 7,8 9,0 12,6 15,2 13,2 16 9 29 16 N 1021,8 50 0 0,0
31.05.2020 04:00:00 9,6 7,5 8,2 12,9 15,7 13,2 14 8 29 16 N 1022,3 50 0 0,0
31.05.2020 03:00:00 10,1 6,9 8,9 13,5 16,0 13,2 14 8 29 16 N 1022,9 50 0 0,0
31.05.2020 02:00:00 11,0 6,5 10,0 14,0 16,2 13,2 13 7 29 16 NNE 1023,1 50 0 0,0
31.05.2020 01:00:00 11,2 5,4 9,2 14,4 16,7 13,2 17 9 29 16 NNE 1023,0 50 0 0,0
31.05.2020 00:00:00 11,9 5,0 10,4 15,1 17,0 13,2 13 7 29 16 NNE 1023,2 50 0 0,0
30.05.2020 23:00:00 12,4 4,2 10,7 15,9 17,7 13,2 14 8 36 19 NNE 1023,1 50 0 0,0
30.05.2020 22:00:00 13,7 4,1 12,5 16,9 18,0 13,2 15 8 32 18 NE 1022,8 50 0 0,0
30.05.2020 21:00:00 14,8 2,4 13,2 18,3 18,4 13,2 14 7 32 18 NNE 1022,3 50 6 0,0
30.05.2020 20:00:00 15,5 2,7 14,7 20,0 18,5 13,2 18 10 32 18 NNE 1022,1 50 42 0,0
30.05.2020 19:00:00 16,8 3,6 18,5 22,3 18,4 13,2 14 7 36 19 N 1022,2 50 54 0,0
30.05.2020 18:00:00 16,2 3,0 16,7 23,4 18,0 13,2 21 11 43 23 ENE 1022,6 50 48 0,0
30.05.2020 17:00:00 17,6 3,2 21,4 23,7 17,7 13,2 17 9 36 19 NNE 1022,4 50 60 0,0
30.05.2020 16:00:00 17,4 4,1 21,0 21,8 17,2 13,2 19 10 47 25 NNE 1022,7 50 54 0,0
30.05.2020 15:00:00 16,4 3,9 18,4 20,5 17,0 13,2 19 11 47 25 NNE 1023,3 50 0 0,0
30.05.2020 14:00:00 16,5 3,6 18,7 21,1 16,7 13,2 20 11 43 23 NNE 1023,6 50 12 0,0
30.05.2020 13:00:00 16,7 3,5 19,0 21,7 16,2 13,0 20 11 43 23 NNE 1024,1 50 24 0,0
30.05.2020 12:00:00 16,5 2,9 20,5 22,6 15,5 13,2 18 10 47 25 ENE 1024,6 50 48 0,0
30.05.2020 11:00:00 16,1 3,3 19,9 20,1 14,7 13,0 18 10 47 25 NE 1024,9 50 60 0,0
30.05.2020 10:00:00 15,1 6,2 18,0 17,5 14,2 13,0 14 8 32 18 NE 1025,2 50 60 0,0
30.05.2020 09:00:00 12,6 5,4 13,7 14,1 14,2 13,0 10 5 29 16 NNE 1025,7 50 54 0,0
30.05.2020 08:00:00 11,9 5,7 12,9 12,6 14,2 13,0 12 6 22 12 NE 1025,9 50 24 0,0
30.05.2020 07:00:00 10,2 5,1 9,2 11,7 14,5 13,0 8 4 18 10 NNE 1026,1 50 60 0,0
30.05.2020 06:00:00 8,9 4,5 6,7 11,4 14,7 13,0 9 5 18 10 NNE 1026,3 50 48 0,0
30.05.2020 05:00:00 8,7 3,7 3,0 11,8 15,2 13,0 8 4 18 10 NE 1026,6 50 0 0,0
30.05.2020 04:00:00 10,0 3,6 7,2 12,4 15,7 13,0 13 7 25 14 ENE 1026,5 50 0 0,0
30.05.2020 03:00:00 10,7 4,3 8,7 12,9 15,9 13,0 14 7 29 16 ENE 1026,4 50 0 0,0
30.05.2020 02:00:00 11,0 5,0 7,0 13,5 16,4 13,0 11 6 22 12 NE 1026,3 50 0 0,0
30.05.2020 01:00:00 11,7 4,8 6,2 14,2 16,7 13,0 11 6 25 14 NE 1026,2 50 0 0,0
30.05.2020 00:00:00 12,9 4,9 9,2 15,1 17,2 13,0 12 7 29 16 NE 1026,2 50 0 0,0
29.05.2020 23:00:00 14,0 4,4 11,7 15,9 17,7 13,0 11 6 29 16 NE 1026,2 50 0 0,0
29.05.2020 22:00:00 14,9 5,5 10,7 16,8 18,0 13,0 12 6 25 14 ENE 1026,1 50 0 0,0
29.05.2020 21:00:00 15,7 5,4 11,7 18,0 18,4 13,0 8 5 22 12 NE 1025,8 50 48 0,0
29.05.2020 20:00:00 16,8 4,3 15,7 19,2 18,7 13,0 12 7 25 14 NNE 1026,0 50 6 0,0
29.05.2020 19:00:00 17,2 4,3 16,7 20,2 19,0 13,0 13 7 40 21 NNE 1026,4 50 0 0,0

tt = temperature
td = dewpoint
tt 5cm = temperature 5cm
tt -5cm = temperature -5cm
tt -20cm = temperature -20cm
tt -100cm = temperature -100cm
ff = wind speed
fx = gusts
dd = wind direction
ppp = reduced air pressure
vv = visibility
sd = sunshine duration
rr = precipitation

Next stations